SCP
0 0 0 0 0 0 0 0 0 0 0 0 0 0 0 0 0 0 0 1 1 1 1 1 1 1 1 2 2 2 2 2 2 2 1 1 1 1 1 1 1 1 1 1 1 1 1 1 1
0 0 0 0 0 0 0 0 0 0 0 0 0 0 0 0 0 0 0 1 1 1 1 1 1 1 1 1 2 2 2 2 2 1 1 1 1 1 1 1 1 1 1 1 1 1 0 0 0
0 0 0 0 0 0 0 0 0 0 0 0 0 0 0 0 0 0 1 1 2 1 1 1 1 1 1 1 1 1 1 1 1 1 1 1 1 1 1 1 1 1 1 0 0 0 0 0 0
0 0 0 0 0 0 0 0 0 0 0 0 0 0 0 0 0 1 1 1 1 1 1 1 1 1 1 1 1 1 1 1 1 1 1 1 1 1 1 0 0 0 0 0 0 0 0 0 0
0 0 0 0 0 -0 0 0 0 0 0 0 0 0 0 0 0 1 1 1 1 1 1 1 1 1 1 1 1 1 1 1 1 1 1 1 0 0 0 0 0 0 0 0 0 0 0 0 0
0 0 0 0 0 -0 0 0 0 0 0 0 0 1 1 1 1 1 1 1 1 1 1 1 1 1 1 1 1 1 1 1 1 1 1 0 0 0 0 0 0 0 0 0 0 0 0 0 0
0 0 0 0 0 -0 0 0 0 0 0 0 0 1 1 1 1 1 1 1 1 1 1 1 1 1 1 1 1 1 1 1 1 1 1 0 0 0 0 0 0 0 0 0 0 0 0 0 0
0 0 0 0 0 -0 -0 0 0 0 0 0 0 0 1 1 1 1 1 1 1 1 1 1 1 1 1 1 1 1 1 1 1 1 0 0 0 0 0 0 0 0 0 0 0 0 0 0 0
0 0 0 0 0 -0 -0 0 0 0 0 0 0 0 1 1 1 1 1 1 1 1 0 1 1 1 1 1 1 1 1 1 1 0 0 0 0 0 0 0 0 0 0 1 0 0 1 0 0
0 0 0 0 0 0 -0 -0 0 0 0 0 0 1 1 2 1 1 1 1 1 0 0 0 1 1 1 1 1 1 1 0 0 0 0 0 0 0 0 0 0 0 1 1 1 1 1 1 0
0 0 0 0 0 0 0 -0 0 0 0 0 0 1 2 2 2 1 1 1 0 0 0 0 1 1 1 1 1 1 1 0 0 0 0 0 0 0 0 0 0 0 0 0 0 1 1 0 0
0 0 0 0 0 0 0 0 0 0 0 0 1 2 2 2 2 1 1 0 0 0 1 1 1 1 1 1 1 1 1 1 0 0 0 0 0 0 0 0 0 0 0 0 0 0 0 0 0
0 0 0 0 0 0 0 0 0 0 0 0 1 2 2 2 2 1 1 0 0 1 1 1 1 1 1 1 1 1 1 0 0 0 0 0 0 0 0 0 0 0 0 0 0 0 0 0 0
0 0 0 0 0 0 0 0 0 0 0 1 1 2 2 2 2 1 1 1 1 1 1 1 1 1 1 1 1 1 1 0 0 0 0 0 0 0 0 0 0 0 0 0 0 0 0 0 0
0 0 0 0 0 0 0 0 0 0 0 1 1 1 2 2 2 2 1 1 1 1 1 1 1 1 1 1 1 1 1 1 0 0 0 0 0 0 0 0 0 0 0 0 1 0 0 0 0
0 0 0 0 0 0 0 0 0 0 0 1 1 1 2 2 2 2 2 2 1 1 1 2 2 1 1 1 1 1 1 1 1 1 1 1 1 1 0 0 0 0 0 1 1 1 0 0 0
0 0 0 0 0 0 0 0 0 0 0 1 1 1 1 2 2 2 2 2 2 2 2 2 2 2 2 1 1 1 1 1 1 1 1 1 1 1 1 1 1 1 1 1 1 0 0 0 0
0 0 0 0 0 0 0 0 0 0 1 1 1 2 2 1 2 2 3 4 4 3 3 3 3 3 2 2 2 2 2 1 1 1 1 1 1 1 1 1 1 1 1 1 1 0 0 0 0
0 0 0 0 0 0 0 0 1 1 1 1 2 2 2 2 2 2 3 5 6 5 4 3 3 3 3 3 3 2 2 2 2 1 1 1 1 1 2 1 1 1 1 1 0 0 0 0 0
0 0 0 0 0 0 0 1 2 2 2 2 3 3 3 2 2 2 4 6 7 6 5 4 4 3 3 3 3 3 2 2 2 1 1 1 1 2 2 2 1 1 1 1 0 0 0 0 0
0 0 0 0 0 0 0 1 2 2 3 3 4 5 4 3 2 3 4 5 6 7 6 5 4 4 4 4 4 4 3 3 2 2 1 1 1 1 1 1 1 1 0 0 0 0 0 0 0
0 0 0 0 0 0 0 1 1 2 3 4 5 6 6 5 4 4 4 4 5 6 5 5 5 5 5 5 6 6 5 5 4 3 2 1 1 1 1 0 0 0 0 0 0 0 0 0 0
0 0 0 0 0 0 0 1 1 2 3 3 4 5 6 6 5 4 4 4 4 4 4 4 5 6 6 7 7 7 6 6 5 4 2 1 1 0 0 0 0 0 0 0 0 0 0 0 0
0 0 0 0 0 0 0 1 1 2 2 2 3 3 4 5 4 4 4 4 4 4 4 4 5 6 6 6 7 7 6 6 5 4 3 1 0 0 0 0 0 0 0 0 0 0 0 0 0
0 0 0 0 0 0 0 1 1 2 2 2 2 2 2 2 3 3 3 3 3 4 4 5 5 5 5 6 7 7 6 6 5 4 3 1 0 0 0 0 0 0 0 0 0 0 0 0 0
0 0 0 0 0 0 1 1 1 2 2 1 1 1 1 2 2 2 2 2 2 3 4 4 4 4 5 6 7 7 6 5 4 3 2 1 0 0 0 0 0 0 0 0 0 0 0 0 0
0 0 0 0 0 0 1 2 2 1 1 1 1 1 1 1 1 1 1 1 1 2 2 3 3 4 5 6 6 5 4 3 2 2 1 1 0 0 0 0 0 0 0 0 0 0 0 0 0
0 0 0 0 0 0 1 1 2 1 1 1 1 1 1 1 1 1 1 1 1 1 1 1 2 3 3 3 3 2 2 1 1 0 0 0 0 0 0 0 0 0 0 0 0 0 0 0 0
0 0 0 0 0 0 1 1 1 1 1 1 1 0 0 0 0 0 0 0 0 0 0 1 1 1 1 1 1 1 1 0 0 0 0 0 0 0 0 0 0 0 0 0 0 0 0 0 0
0 0 0 0 0 0 0 1 1 1 1 1 0 0 0 0 0 0 0 0 0 0 0 0 0 0 0 0 0 0 0 0 0 0 0 0 0 0 0 0 0 0 0 0 0 0 0 0 0
Wind_Speed
6 1 3 3 6 5 3 4 2 4 4 2 1 2 5 5 5 4 2 11 16 15 13 16 18 18 19 20 19 19 19 19 19 18 17 17 16 15 15 15 14 15 15 15 15 14 14 13 13
2 1 3 5 5 1 5 3 2 3 4 2 2 2 2 0 2 6 6 10 17 16 12 13 18 18 19 20 19 18 19 19 18 17 17 16 15 14 14 14 14 14 14 14 13 13 12 12 12
2 2 5 5 3 5 4 2 2 6 5 1 1 3 1 2 5 6 6 14 16 14 11 13 18 17 18 19 19 18 18 18 17 16 16 15 14 13 13 13 13 12 12 12 12 11 11 10 10
2 5 6 4 5 6 4 2 5 8 7 2 3 2 1 1 6 7 14 16 16 13 11 13 18 17 17 18 18 18 17 17 16 16 15 14 13 12 12 12 11 11 11 11 10 10 9 9 8
4 5 3 1 7 5 4 3 3 4 5 3 3 3 1 4 7 14 16 17 16 12 9 12 16 16 16 17 17 17 16 15 15 14 14 13 12 11 10 10 10 10 10 9 8 8 7 7 6
5 5 4 5 8 5 3 2 2 3 4 2 3 3 1 3 10 14 14 13 13 13 10 10 16 18 17 17 16 15 15 14 13 13 12 12 11 10 9 9 9 8 8 7 7 6 5 5 4
5 5 7 7 6 7 4 3 1 2 5 2 4 4 0 3 7 11 10 10 9 10 10 8 9 13 16 15 15 14 14 13 12 12 11 11 10 10 9 8 7 6 6 6 5 4 4 3 2
4 5 5 6 6 8 2 1 1 1 4 1 5 7 5 6 8 9 9 8 8 8 8 8 7 7 7 9 14 15 13 13 12 12 12 11 11 9 8 6 5 5 5 4 4 3 2 2 1
4 4 5 7 7 6 1 0 2 2 2 1 3 6 6 13 13 12 11 8 8 9 7 7 7 7 6 7 10 12 13 12 12 11 12 9 4 4 4 5 6 5 4 4 3 2 1 1 1
5 4 8 6 5 3 1 1 3 3 4 3 0 3 12 16 15 15 15 14 13 12 10 7 8 8 7 7 6 5 5 6 6 5 5 4 3 2 3 3 6 6 5 3 2 2 1 1 1
5 7 6 6 6 4 3 3 3 3 6 7 6 10 18 17 15 15 15 15 15 13 11 9 8 8 8 5 5 4 3 4 4 5 5 4 3 2 2 1 2 2 2 0 2 2 1 0 1
4 6 5 5 4 3 4 3 3 6 11 8 8 16 21 20 19 17 16 15 12 12 12 10 9 8 8 6 5 5 4 4 4 5 6 4 3 2 2 1 1 0 1 1 1 0 0 1 2
5 6 6 7 7 5 4 6 5 9 11 7 7 16 21 20 16 13 11 11 11 13 12 11 10 10 8 6 5 6 5 5 5 4 5 5 4 4 3 2 2 1 1 1 1 0 0 1 1
5 7 8 7 7 5 6 6 4 11 7 4 10 15 16 16 15 12 11 12 12 13 12 10 11 9 8 6 6 5 5 5 5 5 6 6 5 4 4 3 2 2 2 2 1 1 2 2 2
3 3 6 6 6 6 4 4 7 9 3 6 9 12 12 12 13 14 15 13 13 13 12 12 12 10 9 8 7 5 5 5 5 5 6 7 6 5 4 3 3 3 2 3 3 3 3 3 3
2 1 3 5 3 3 6 5 7 3 6 7 8 10 11 12 14 13 13 12 12 11 12 12 12 12 10 8 7 5 5 5 5 5 5 7 7 7 5 4 4 3 3 3 3 3 3 3 3
3 1 2 5 2 1 4 5 6 1 6 7 7 9 11 11 11 11 13 13 13 13 12 12 11 12 11 9 6 5 4 5 5 5 5 6 7 7 6 4 4 4 4 4 4 3 3 3 4
2 1 2 4 3 1 1 5 7 3 6 7 7 8 9 11 12 9 10 11 10 10 11 11 10 10 9 7 5 4 3 3 2 3 4 6 6 7 6 4 5 5 4 4 4 4 3 3 3
2 1 4 6 4 2 3 4 6 4 2 5 5 7 8 9 6 5 6 8 8 9 10 11 12 11 9 7 6 5 5 4 3 3 4 5 5 6 6 5 6 5 5 5 6 4 5 3 2
2 3 5 6 3 2 3 4 5 5 3 0 2 3 5 3 2 3 3 4 7 9 9 9 10 11 11 8 6 3 4 3 2 2 2 3 5 5 5 6 5 5 6 6 5 5 3 2 1
3 3 4 5 6 4 2 5 7 6 7 9 8 6 5 3 2 2 2 1 2 4 6 7 9 9 9 8 6 5 4 3 3 3 3 3 5 5 6 7 6 5 5 6 5 5 5 4 2
4 6 5 3 2 4 2 2 5 5 9 11 10 10 10 8 7 6 6 4 3 1 1 3 6 7 8 9 9 9 7 5 4 4 4 5 5 6 6 7 7 6 5 5 4 3 3 5 3
7 4 3 2 2 2 2 3 3 4 6 8 10 11 11 10 10 10 9 6 5 4 3 2 4 6 7 8 9 8 5 4 5 6 7 6 5 5 6 7 7 6 5 6 6 5 4 3 4
4 3 4 4 4 1 2 4 2 3 4 6 9 11 11 11 11 11 10 9 8 6 5 4 5 5 6 7 8 8 8 8 8 7 6 5 4 5 6 7 7 7 6 7 7 6 7 6 6
4 5 4 3 3 3 1 5 3 5 7 8 9 10 10 11 11 11 12 11 10 9 7 5 6 5 6 7 7 7 7 8 9 7 6 6 5 4 6 8 7 7 7 8 8 8 8 8 9
5 9 7 5 4 2 3 4 4 7 8 9 9 9 11 11 11 12 12 11 10 10 9 7 7 7 7 8 7 7 7 6 6 7 7 7 6 6 7 9 9 9 8 9 9 8 8 8 9
6 4 6 6 2 2 2 4 4 6 8 9 9 9 10 10 11 11 11 11 11 11 11 10 10 10 10 10 10 9 9 9 10 10 10 8 8 8 9 10 10 10 9 9 9 8 8 8 8
4 7 6 6 5 2 2 2 1 5 7 6 6 7 7 8 10 10 11 11 11 11 11 12 12 12 12 12 10 10 11 11 11 11 12 11 10 10 10 11 11 11 10 10 9 8 7 8 6
3 4 5 5 5 6 3 0 3 4 8 8 6 6 7 8 9 9 9 10 11 12 12 12 13 13 13 13 13 13 13 13 13 12 12 11 11 11 12 11 11 11 10 9 8 7 6 7 6
4 3 5 5 3 4 5 2 3 6 8 8 8 7 7 8 9 9 10 11 11 12 12 12 12 13 12 12 14 15 14 14 14 14 13 13 12 12 12 11 11 11 10 8 8 7 6 6 5
Wind_Direction
301 104 118 74 48 41 288 269 268 340 327 311 266 144 151 159 176 199 120 135 134 141 150 151 150 146 139 134 130 128 127 126 127 127 127 127 127 126 125 123 120 118 116 115 115 115 115 115 115
296 131 74 60 78 355 279 266 334 319 297 321 29 55 69 89 77 113 128 140 138 141 145 150 151 147 141 137 134 132 132 131 130 130 130 130 129 128 127 126 123 121 119 118 118 119 119 119 120
300 70 86 78 133 197 240 258 312 306 294 269 64 55 70 191 141 147 148 141 137 141 144 154 151 148 143 141 139 137 136 135 135 134 134 134 133 132 131 130 128 125 123 121 121 122 121 121 123
69 54 61 96 227 227 221 283 315 320 318 286 121 89 43 34 153 150 141 142 138 143 147 155 153 150 147 145 143 142 141 140 139 139 138 138 137 137 136 136 134 130 127 125 125 125 123 122 125
60 87 94 215 242 244 228 254 278 299 297 298 132 137 351 8 115 134 143 146 145 145 148 155 154 153 151 149 147 147 145 144 143 143 142 142 142 141 142 143 141 138 134 131 130 128 125 123 127
59 87 145 229 248 249 235 228 279 291 287 285 128 126 322 102 133 146 148 148 148 149 148 154 159 158 156 154 152 151 150 148 147 147 147 148 148 149 150 151 151 146 139 135 134 131 124 121 126
120 138 191 216 245 258 238 200 202 287 297 266 139 129 284 151 155 145 139 134 137 145 147 151 159 162 162 159 156 155 154 153 152 152 153 156 158 160 162 161 160 153 146 144 143 141 132 125 132
128 131 197 213 227 254 192 181 197 262 284 266 133 153 203 179 148 130 121 123 133 143 151 151 152 152 154 158 163 161 159 158 159 161 164 168 170 171 174 171 174 172 167 163 161 164 149 144 177
87 100 209 212 207 236 139 77 294 263 261 250 178 178 177 141 141 134 131 134 149 158 159 155 150 148 147 153 168 167 167 166 167 170 175 172 165 170 179 185 195 198 197 193 185 192 186 185 252
106 175 226 223 214 239 317 265 279 307 300 280 112 121 135 144 156 157 160 164 169 173 174 165 158 155 152 163 157 153 160 163 163 162 167 154 147 167 178 202 213 220 221 223 219 220 225 120 307
166 199 229 245 247 259 279 267 226 228 264 235 209 163 151 159 169 173 176 177 178 175 176 174 167 161 160 156 150 149 148 155 159 161 157 147 144 150 161 147 244 259 256 57 39 39 53 175 221
189 241 233 253 246 236 235 243 237 217 239 235 202 165 162 172 180 182 182 183 177 175 182 176 173 168 167 158 158 156 156 163 167 165 158 152 154 166 176 187 207 204 90 94 67 33 331 231 225
222 256 253 249 263 251 244 237 238 253 255 255 180 165 173 178 182 185 184 183 178 182 183 179 177 176 171 162 163 167 170 174 170 165 167 164 168 181 190 204 204 197 163 149 148 120 55 58 132
234 236 258 268 257 236 225 250 213 257 256 200 167 171 176 179 179 180 183 186 187 187 185 178 180 179 172 172 172 173 175 172 168 174 177 175 176 182 189 204 203 197 177 161 151 143 112 81 89
266 266 285 257 235 237 190 262 229 245 187 173 172 171 172 178 182 190 191 190 189 187 183 180 181 177 179 180 180 175 176 173 181 184 182 183 183 185 185 190 195 189 160 143 131 114 98 91 87
339 308 286 282 237 219 153 237 260 231 167 177 178 175 176 185 192 193 192 189 187 182 183 185 187 182 183 184 180 176 174 177 186 184 186 190 189 184 179 184 190 170 149 143 136 124 100 86 89
14 325 267 298 314 154 166 234 275 202 179 188 188 184 184 190 196 195 194 192 187 184 182 184 185 181 183 181 176 175 173 184 187 182 187 191 187 181 175 180 173 156 144 143 142 120 115 111 103
255 271 304 294 302 1 212 250 277 261 198 204 198 190 189 195 202 194 191 189 184 182 181 182 183 177 172 170 165 161 158 176 178 177 187 182 178 176 169 164 159 151 141 137 132 118 98 104 109
221 281 291 275 277 302 286 288 302 310 210 218 209 200 201 205 202 182 180 179 177 182 184 183 180 174 167 172 177 179 178 169 169 168 173 170 163 166 161 158 153 150 145 143 135 116 104 85 89
231 283 292 295 312 279 303 333 349 24 21 331 192 200 204 189 168 167 166 167 181 185 186 186 183 176 178 182 172 160 137 139 138 133 131 137 145 151 154 150 148 144 134 136 137 128 117 90 53
238 225 251 281 331 357 19 1 17 26 39 43 48 48 48 74 72 65 83 135 162 177 190 187 185 185 181 163 136 117 108 112 133 141 126 111 123 131 135 135 135 140 139 144 141 141 137 134 83
257 234 225 264 351 313 38 5 354 21 46 46 44 45 42 40 45 42 36 29 21 351 186 177 177 178 171 162 161 162 173 173 162 141 128 117 114 117 120 125 128 126 121 126 128 127 130 133 134
221 235 217 249 197 302 348 121 320 13 46 47 47 46 43 42 46 44 38 33 30 25 38 115 146 154 158 161 164 163 155 138 125 123 122 108 99 102 111 116 116 112 108 108 104 102 101 106 123
199 63 45 46 79 330 282 128 15 16 35 56 51 45 42 42 44 43 39 37 35 37 44 62 106 125 141 144 148 156 153 143 137 137 133 120 105 92 91 93 95 98 98 98 97 94 91 89 92
117 97 36 11 32 250 336 94 75 49 59 69 62 50 42 41 43 41 37 35 34 37 42 55 86 96 107 118 124 133 137 136 139 140 127 119 105 92 92 93 92 92 93 94 94 91 86 86 89
170 143 157 182 197 267 27 90 88 76 76 74 67 58 49 43 42 42 38 35 35 37 42 56 72 77 83 92 94 97 102 106 106 105 108 104 98 93 94 93 91 91 92 93 91 91 90 89 90
141 171 161 129 138 83 72 103 113 100 82 71 61 53 49 45 44 44 42 40 39 40 41 51 66 68 69 78 84 82 85 92 96 95 93 93 94 95 91 92 89 85 84 85 86 87 88 90 90
124 135 99 111 133 125 86 96 97 138 115 94 74 58 51 48 46 44 43 43 43 44 45 49 57 64 66 70 76 82 84 86 90 91 90 90 88 88 87 85 85 83 80 81 82 84 86 90 87
54 72 92 98 129 138 138 129 349 153 133 119 95 68 54 51 48 45 44 45 49 50 51 52 55 62 66 70 75 78 77 79 81 82 82 83 82 83 82 81 81 79 76 75 80 81 83 89 87
96 108 128 134 143 123 127 124 18 106 109 111 103 86 69 61 57 52 48 48 49 52 55 57 59 63 67 74 78 78 76 77 77 77 76 77 75 74 77 77 75 74 72 69 72 76 71 78 80